Regional Weather Roundup
Issued by NWS Goodland, KS

Home | Current Version | Previous Version | Graphics & Text | Print | Product List | Glossary On
Versions: 1 2 3 4 5 6 7 8 9 10 11 12 13 14 15 16 17 18 19 20 21 22 23 24 25 26 27 28 29 30 31 32 33 34 35 36 37 38 39 40 41 42 43 44 45 46 47 48 49 50
000
ASUS43 KGLD 091859
RWRGLD

GOODLAND FORECAST AREA HOURLY WEATHER ROUNDUP
NATIONAL WEATHER SERVICE GOODLAND KS
1200 PM MST TUE FEB 09 2016

...OFFICIAL OBSERVATIONS...

CITY           SKY/WX    TMP DP  RH WIND       PRES   REMARKS
GOODLAND KS    MOSUNNY   42  27  55 N7        30.29S
HILL CITY KS   CLOUDY    37  20  50 N10       30.31F
IMPERIAL NEB   CLOUDY    39  26  59 W3        30.26F
MCCOOK NEB     CLOUDY    36  20  52 NW5       30.28F
AKRON CO       SUNNY     43  29  57 NW14      30.29S
BURLINGTON CO  SUNNY     42  28  57 NW13      30.29F
LIMON CO       SUNNY     41  24  51 W8        30.32F
$$

...UNOFFICIAL OBSERVATIONS...

CITY           SKY/WX    TMP DP  RH WIND       PRES   REMARKS
COLBY KS       CLOUDY    37  25  60 NW3       30.29F
GOVE KS          N/A     39  32  76 MISG        N/A
LENORA KS        N/A     36  32  85 MISG        N/A
NORTON KS      CLOUDY    34  18  51 N7        30.30
SHARON SPRINGS   N/A     44  32  62 CALM        N/A
KIT CARSON CO    N/A     48  29  48 MISG        N/A
YUMA CO          N/A     42  32  67 N14         N/A
$$



USA.gov is the U.S. government's official web portal to all federal, state and local government web resources and services.